LKKB Weather Reports


time (UTC)temp
F
wind
direction
speed
knots
gust
knots
rain 1hr
in
rain 24hr
in
rain mn
in
humidity
%
barometer
mb
20260507163103 57 270 10.4 0.0 0.00 0.00 0.00 62 1013.0
20260507162154 59 280 12.2 0.0 0.00 0.00 0.00 58
20260507160104 59 280 12.2 0.0 0.00 0.00 0.00 58 1012.0
20260507153355 59 260 14.8 0.0 0.00 0.00 0.00 58 1012.0
20260507153103 59 260 14.8 0.0 0.00 0.00 0.00 58 1012.0
20260507151852 61 250 12.2 0.0 0.00 0.00 0.00 55
20260507143103 63 240 12.2 0.0 0.00 0.00 0.00 51 1012.0
20260507141854 63 220 12.2 0.0 0.00 0.00 0.00 51
20260507133102 61 210 12.2 0.0 0.00 0.00 0.00 55 1012.0
20260507131954 61 230 13.9 0.0 0.00 0.00 0.00 55
20260507130103 61 220 13.0 0.0 0.00 0.00 0.00 55 1012.0
20260507123102 61 210 12.2 0.0 0.00 0.00 0.00 55 1012.0
20260507121853 61 220 13.9 0.0 0.00 0.00 0.00 51
20260507120103 59 220 14.8 0.0 0.00 0.00 0.00 58 1012.0
20260507113103 61 220 13.9 0.0 0.00 0.00 0.00 55 1011.0
20260507111852 61 220 13.9 0.0 0.00 0.00 0.00 55
20260507110204 63 230 13.0 0.0 0.00 0.00 0.00 55 1011.0
20260507103102 61 210 11.3 0.0 0.00 0.00 0.00 59 1011.0
20260507102053 61 240 12.2 0.0 0.00 0.00 0.00 59
20260507100103 61 230 13.0 0.0 0.00 0.00 0.00 59 1011.0
20260507093103 59 240 11.3 0.0 0.00 0.00 0.00 62 1011.0
20260507091851 61 230 13.9 0.0 0.00 0.00 0.00 63
20260507083103 61 230 14.8 0.0 0.00 0.00 0.00 67 1010.0
20260507081851 57 210 13.9 0.0 0.00 0.00 0.00 71
20260507073103 57 220 13.0 0.0 0.00 0.00 0.00 71 1010.0
20260507071852 57 210 10.4 0.0 0.00 0.00 0.00 76
20260507063103 57 210 8.7 0.0 0.00 0.00 0.00 82 1009.0
20260507061852 55 210 10.4 0.0 0.00 0.00 0.00 82
20260507060104 55 210 8.7 0.0 0.00 0.00 0.00 87 1009.0
20260507053102 54 200 10.4 0.0 0.00 0.00 0.00 87 1009.0
20260507051851 54 190 7.8 0.0 0.00 0.00 0.00 87
20260507050104 54 190 7.0 0.0 0.00 0.00 0.00 87 1009.0
20260507043103 52 200 7.0 0.0 0.00 0.00 0.00 93 1008.0
20260507042056 52 210 10.4 0.0 0.00 0.00 0.00 93
20260507033103 52 200 7.8 0.0 0.00 0.00 0.00 93 1008.0
20260507031852 52 210 7.8 0.0 0.00 0.00 0.00 93
20260507030210 52 210 7.0 0.0 0.00 0.00 0.00 93 1008.0
20260507023103 54 210 7.8 0.0 0.00 0.00 0.00 93 1008.0
20260507021902 54 210 7.0 0.0 0.00 0.00 0.00 93 1008.0
20260507021850 54 200 7.8 0.0 0.00 0.00 0.00 93
20260507020511 54 200 7.8 0.0 0.00 0.00 0.00 93 1008.0
20260507020210 54 200 7.8 0.0 0.00 0.00 0.00 93 1008.0
20260507015803 54 200 8.7 0.0 0.00 0.00 0.00 100 1007.0
20260507014703 54 200 8.7 0.0 0.00 0.00 0.00 100 1007.0
20260507014303 54 200 8.7 0.0 0.00 0.00 0.00 100 1007.0
20260507013102 54 180 5.2 0.0 0.00 0.00 0.00 100 1007.0
20260507011951 55 220 7.8 0.0 0.00 0.00 0.00 93
20260507010212 55 220 7.0 0.0 0.00 0.00 0.00 93 1007.0
20260507003102 55 200 6.1 0.0 0.00 0.00 0.00 93 1007.0
20260507001851 55 250 4.3 0.0 0.00 0.00 0.00 93
20260506233102 55 230 5.2 0.0 0.00 0.00 0.00 100 1006.0
20260506231853 55 220 6.1 0.0 0.00 0.00 0.00 93
20260506230211 55 220 6.1 0.0 0.00 0.00 0.00 100 1006.0
20260506223103 55 170 4.3 0.0 0.00 0.00 0.00 93 1006.0
20260506222051 55 130 6.1 0.0 0.00 0.00 0.00 93
20260506220210 55 120 6.1 0.0 0.00 0.00 0.00 100 1006.0
20260506213103 57 150 6.1 0.0 0.00 0.00 0.00 93 1006.0
20260506211851 57 180 6.1 0.0 0.00 0.00 0.00 87
20260506203102 57 130 6.1 0.0 0.00 0.00 0.00 87 1005.0
20260506201924 57 240 1.7 0.0 0.00 0.00 0.00 82
20260506200303 57 0 1.7 0.0 0.00 0.00 0.00 87 1005.0
20260506194402 57 50 4.3 0.0 0.00 0.00 0.00 87 1005.0
20260506193103 59 0 1.7 0.0 0.00 0.00 0.00 87 1005.0
20260506192306 59 320 2.6 0.0 0.00 0.00 0.00 82 1005.0
20260506192032 59 80 4.3 0.0 0.00 0.00 0.00 82
20260506190217 59 50 2.6 0.0 0.00 0.00 0.00 82 1005.0
20260506183103 59 70 6.1 0.0 0.00 0.00 0.00 82 1004.0
20260506181940 59 70 6.1 0.0 0.00 0.00 0.00 82
20260506180104 61 50 4.3 0.0 0.00 0.00 0.00 77 1004.0
20260506173102 61 70 4.3 0.0 0.00 0.00 0.00 77 1004.0
20260506171851 61 70 4.3 0.0 0.00 0.00 0.00 72